www.pogodaiklimat.ru

Погода и климат >> Архив погоды >> Иран >> Ilam


ПОГОДА в Ilam

  • Прогноз погоды в Ilam
  • Монитор погоды в Ilam
  • Климат города

АРХИВ ПОГОДЫ в Ilam

Время (UTC), дата Ветер
(напр.,м/с)
 
Видим.   Явления Облачность Т
(С)
Тd
(С)
f
(%)
Тe
(С)
Тes
(С)
Комфортность P
(гПа)
Po
(гПа)
Тmin
(С)
Tmax
(С)
R
(мм)
R24
(мм)
S
(см)
21 16.07 СЗ 2 10 км ясно +26.8 -1.9 15 +24 +24 комфорт 1000.0 864.3
00 17.07 СЗ 6 10 км ясно +28.0 -2.0 14 +25 +25 комфорт 998.8 863.2
03 17.07 СЗ 1 10 км ясно +28.4 -1.6 14 +26 +27 жарко 999.3 863.4 +25.9
06 17.07 СВ 3 10 км ясно +35.3 +2.7 13 +32 +43 жарко 999.1 863.8
09 17.07 В 3 10 км ясно +38.3 +5.1 13 +35 +53 опасность
солнечного
удара
999.1 863.8
12 17.07 В 4 10 км 3/3 1350 м
[Cu hum]
+39.5 +6.0 13 +37 +42 очень
жарко
997.8 863.1
15 17.07 Ю 3 10 км 3/0
[Ac trans]
+37.8 +4.7 13 +35 +35 очень
жарко
997.4 862.3 +40.0
18 17.07 СВ 1 10 км 4/0
[Ac trans]
+29.8 +1.3 16 +27 +27 жарко 999.3 863.7
21 17.07 СЗ 2 10 км ясно +28.8 +2.1 18 +27 +27 жарко 998.2 863.4
00 18.07 СВ 1 10 км 4/0
[Ac trans]
+27.8 +2.1 19 +26 +26 жарко 997.7 863.0
03 18.07 В 3 10 км 8/1 1350 м
[Sc diur, vesp Ac As]
+31.4 +2.6 16 +29 +29 жарко 998.4 863.9 +26.9
06 18.07 В 6 10 км 3/1 1350 м
[Sc Ac trans]
+36.4 +3.6 13 +33 +37 жарко 1000.2 864.9
09 18.07 В 5 10 км 1/1 1350 м
[Cu hum Ac und]
+38.6 +5.3 13 +36 +46 очень
жарко
999.5 864.6
12 18.07 СВ 2 10 км 5/5 1350 м
[Cu hum]
+39.9 +6.3 13 +37 +43 очень
жарко
997.4 862.9
15 18.07 З 5 10 км 6/6 1350 м
[Cu hum]
+38.1 +4.9 13 +35 +35 очень
жарко
996.0 862.0 +40.4
18 18.07 СЗ 3 10 км 3/0
[Ac trans]
+32.0 +2.2 15 +29 +29 жарко 997.0 862.6
21 18.07 СВ 1 10 км ясно +28.5 +1.9 18 +26 +26 жарко 997.7 862.9
00 19.07 ЮВ 2 10 км ясно +29.0 -0.2 15 +26 +26 жарко 997.2 862.7
03 19.07 ЮВ 2 10 км 5/0
[Ac trans]
+28.8 +0.5 16 +26 +27 жарко 997.7 862.7 +26.2
06 19.07 ЮВ 3 10 км 8/0
[Ac As]
+36.0 +3.3 13 +33 +38 жарко 998.1 863.4
09 19.07 ЮЗ 5 10 км 1/0
[Ac trans]
+38.2 +5.0 13 +35 +46 очень
жарко
997.8 863.0
12 19.07 ЮЗ 3 10 км 3/1 1350 м
[Cu hum Ac trans]
+38.8 +5.4 13 +36 +44 очень
жарко
996.0 861.7
15 19.07 З 4 10 км 3/0
[Ac trans]
+37.3 +4.3 13 +34 +35 очень
жарко
995.2 860.6 +39.4
18 19.07 З 6 10 км ясно +33.1 +1.0 13 +30 +30 жарко 995.5 861.4
21 19.07 СЗ 2 10 км ясно +29.8 -0.5 14 +27 +27 жарко 995.9 861.4
00 20.07 СЗ 2 10 км ясно +25.0 -1.7 17 +23 +23 комфорт 996.5 860.8
03 20.07 В 2 10 км ясно +25.6 -2.9 15 +23 +24 комфорт 996.7 861.0 +23.5
06 20.07 ЮВ 3 10 км ясно +36.0 +3.3 13 +33 +43 жарко 995.8 861.7
09 20.07 Ю 4 10 км ясно +37.8 +4.7 13 +35 +49 очень
жарко
995.9 861.5
12 20.07 З 4 10 км ясно +38.3 +5.1 13 +35 +43 очень
жарко
995.6 860.6
15 20.07 З 6 10 км ясно +36.0 +3.3 13 +33 +33 жарко 995.8 859.8 +38.6
18 20.07 З 2 10 км ясно +29.3 +1.7 17 +27 +27 жарко 996.0 861.0
21 20.07 В 2 10 км ясно +24.7 +0.3 20 +23 +23 комфорт 996.9 861.2
00 21.07 ЮВ 3 10 км ясно +24.3 -0.1 20 +23 +23 комфорт 997.0 861.3
03 21.07 В 2 10 км ясно +25.3 +0.8 20 +24 +25 комфорт 997.9 861.9 +23.1
06 21.07 Ю 3 10 км ясно +35.4 +2.8 13 +32 +43 жарко 997.8 862.5
09 21.07 Ю 2 10 км ясно +38.8 +5.4 13 +36 +57 опасность
солнечного
удара
997.9 862.6
12 21.07 ЮЗ 3 10 км ясно +39.4 +5.9 13 +37 +46 очень
жарко
997.5 862.0
15 21.07 З 6 10 км ясно +37.1 +4.1 13 +34 +34 очень
жарко
996.8 861.2 +40.1
18 21.07 СЗ 2 10 км ясно +30.9 -0.7 13 +28 +28 жарко 997.9 862.8
21 21.07 СЗ 3 10 км ясно +31.6 -0.1 13 +28 +28 жарко 997.2 863.1
00 22.07 ЮВ 2 10 км ясно +27.5 -3.3 13 +25 +25 комфорт 997.7 862.7
03 22.07 ЮВ 1 10 км ясно +30.3 -1.2 13 +27 +28 жарко 998.7 863.7 +24.4
06 22.07 В 4 10 км ясно +38.0 +4.8 13 +35 +44 очень
жарко
999.2 864.5
09 22.07 С 3 10 км ясно +39.5 +6.0 13 +37 +54 опасность
солнечного
удара
998.5 864.6
12 22.07 ЮЗ 5 10 км ясно +39.6 +6.1 13 +37 +43 очень
жарко
996.9 862.3
15 22.07 С 2 10 км ясно +38.3 +5.1 13 +35 +36 очень
жарко
996.5 862.2 +40.1
18 22.07 С 1 10 км ясно +30.7 -0.8 13 +28 +28 жарко 997.5 862.9
21 22.07 СЗ 1 10 км ясно +28.8 -2.3 13 +26 +26 жарко 997.8 863.1
00 23.07 ЮВ 2 10 км ясно +26.8 -2.9 14 +24 +24 комфорт 997.4 862.4
03 23.07 В 2 10 км ясно +26.1 -3.5 14 +24 +25 комфорт 998.1 862.6 +24.6
06 23.07 ЮВ 3 10 км ясно +36.8 +3.9 13 +34 +44 очень
жарко
997.7 863.0
09 23.07 ЮЗ 8 10 км 3/1 1350 м
[Cu hum Ac trans]
+40.6 +1.2 9 +37 +40 очень
жарко
996.4 862.4
12 23.07 З 6 10 км 4/1 1350 м
[Cu hum Ac trans]
+40.2 +6.5 13 +38 +41 очень
жарко
995.5 861.2
15 23.07 СЗ 4 10 км 5/3 1350 м
[Sc Ac trans]
+38.6 +5.3 13 +36 +36 очень
жарко
995.3 860.5 +40.8
18 23.07 СЗ 7 10 км 1/0
[Ac trans]
+33.8 +1.6 13 +31 +31 жарко 995.2 861.4

 

Местоположение метеостанции Ilam (Иран): широта 33.63 долгота 46.43 высота над уровнем моря 1337 м.

В архиве по умолчанию представлена погода в Ilam за последнюю неделю. Архивные данные за месяц целиком и за предыдущие месяцы, начиная с января 2011 года, Вы можете получить, выбрав интересующий диапазон дат из раскрывающегося списка и нажав кнопку "Ввод!".

Внимание! Время в таблицах - всемирное. Для получения местного времени необходимо прибавить поправку, которая в Ilam равна 3.5 ч.

Смотрите также архив погоды в соседних городах и на ближайших метеорологических станциях:

Погода в Badrah (Ирак) (74 км)
Погода в Kermanshah (Иран) (95 км)
Погода в Khanaqin (Ирак) (119 км)
Погода в Ali Al-Gharbi (Ирак) (132 км)
Погода в Ubaydah Bin Al Jarrah (Ирак) (142 км)
Погода в Azizyah (Ирак) (149 км)
Погода в Ayn Al-Tamar (Ирак) (159 км)
Погода в Kut-Al-Hai (Ирак) (166 км)
Погода в Al-Khalis (Ирак) (177 км)
Погода в Halabcha (Ирак) (180 км)

Пояснения к столбцам:

Ветер - указаны скорость ветра в м/с - средняя за 10 мин, порывы в срок и между сроками (в фигурных скобках) и направление, откуда дует ветер: С - северный, СВ - северо-восточный, В - восточный, ЮВ - юго-восточный, Ю - южный, ЮЗ - юго-западный, З - западный, СЗ - северо-западный.
Видимость - горизонтальная дальность видимости в метрах или километрах. При видимости от 1 до 10 км при отсутствии осадков обычно наблюдается дымка, при ухудшении видимости до 1 км и менее - туман. В сухую погоду видимость может ухудшаться дымом, пылью или мглою.
Явления - указаны атмосферные явления, наблюдавшиеся в срок или в последний час перед сроком; фигурными скобками обозначены явления, наблюдавшиеся между сроками (за 1-3 часа до срока); квадратными скобками обозначены град или гололедные отложения с указанием их диаметра в мм.
Облачность - указаны через наклонную черту общая и нижняя облачность в баллах и высота нижней границы облаков в метрах; квадратными скобками обозначены формы облаков: Ci - перистые, Cs - перисто-слоистые, Cc - перисто-кучевые, Ac - высококучевые, As - высокослоистые, Sc - слоисто-кучевые, Ns - слоисто-дождевые, Cu - кучевые, Cb - кучево-дождевые. Подробнее классификацию облаков см. в Атласе облаков (PDF).
T - Температура воздуха - температура, измеренная на высоте 2 м над землей.
Td - Температура точки росы - температура, при понижении до которой содержащийся в воздухе водяной пар достигнет насыщения.
f - Относительная влажность воздуха - влажноcть воздуха, измеренная на высоте 2 м над землей.
Te - Эффективная температура - температура, которую ощущает одетый по сезону человек в тени. Характеристика душности погоды. При расчете учитывается влияние влажности воздуха и скорости ветра на теплоощущения человека.
Tes - Эффективная температура на солнце - температура, которую ощущает человек, с поправкой на солнечный нагрев. Характеристика знойности погоды. Зависит от высоты солнца над горизонтом, облачности и скорости ветра. Ночью, в пасмурную погоду, а также при ветре 12 м/с и более поправка равна нулю.
P - Атмосферное давление - приведенное к уровню моря атмосферное давление.
Po - Атмосферное давление - измеренное на уровне метеостанции атмосферное давление.
Tmin - Минимальная температура - минимум температуры воздуха на высоте 2 м над землей.
Tmax - Максимальная температура - максимум температуры воздуха на высоте 2 м над землей.
R - Количество осадков - Количество выпавших осадков за период времени, мм. При наведении курсора мыши на число - период времени, за который выпало указанное количество осадков.
R24 - Количество осадков - Количество выпавших осадков за 24 часа, мм.
S - Снежный покров - Высота снежного покрова, см. При наведении курсора мыши на число - состояние снежного покрова и степень покрытия местности в баллах.